Eau Claire, WI

4:51 AM CDT on September 23, 2019 (GMT -0500)
Chippewa Valley Regional

Weather History for KEAU - August, 2019

Change the Weather History Date:

Wednesday, August 21, 2019

  Actual Average Record
Temperature  
Mean Temperature 67 °F 69 °F  
Max Temperature 75 °F 80 °F 99 °F (1947)
Min Temperature 59 °F 58 °F 38 °F (2004)
Degree Days  
Heating Degree Days 0 1  
Month to date heating degree days 1 16  
Since 1 June heating degree days 68 89  
Since 1 July heating degree days 4 27  
Cooling Degree Days 2 5  
Month to date cooling degree days 94 119  
Year to date cooling degree days 390 485  
Since 1 June cooling degree days 380 453  
Growing Degree Days 17 (Base 50)    
Moisture  
Dew Point 55 °F    
Average Humidity 68    
Maximum Humidity 93    
Minimum Humidity 41    
Precipitation  
Precipitation 0.00 in 0.14 in 3.00 in (2002)
Month to date precipitation 2.78 3.14  
Year to date precipitation 27.74 20.79  
Snow  
Snow 0.00 in 0.00 in 0.00 in ()
Month to date snowfall 0.0 0.0  
Since 1 June snowfall 0.0 0.0  
Since 1 July snowfall 0.0 0.0  
Snow Depth 0.00 in    
Sea Level Pressure  
Sea Level Pressure 30.01 in    
Wind  
Wind Speed 5 mph ()    
Max Wind Speed 15 mph    
Max Gust Speed 22 mph    
Visibility 10.0 miles    
Events      
T = Trace of Precipitation, MM = Missing Value Source: Averaged Metar Reports

Daily Weather History Graph

Daily Weather History Graph

Search for Another Location

Airport or City:

Astronomy

Aug. 21, 2019 Rise Set
Actual Time 6:14 AM CDT 8:02 PM CDT
Civil Twilight 5:43 AM CDT 8:33 PM CDT
Nautical Twilight 5:05 AM CDT 9:11 PM CDT
Astronomical Twilight 4:23 AM CDT 9:52 PM CDT
Moon 11:05 PM CDT (8/21) 12:05 PM CDT (8/21)
Length of Visible Light 14h 50m
Length of Day
13h 47m
Waning Gibbous, 69% of the Moon is Illuminated
Aug 21
Waning Gibbous
Aug 23
Last Quarter
Aug 30
New
Sep 5
First Quarter
Sep 13
Full

Hourly Weather History & Observations

Time (CDT) Temp. Dew Point Humidity Pressure Visibility Wind Dir Wind Speed Gust Speed Precip Events Conditions
12:56 AM 68.0 °F 64.9 °F 90% 29.98 in 10.0 mi North 5.8 mph - N/A   Mostly Cloudy
1:56 AM 66.9 °F 64.0 °F 90% 29.99 in 10.0 mi North 6.9 mph - N/A   Mostly Cloudy
2:56 AM 64.9 °F 62.1 °F 90% 29.99 in 10.0 mi North 3.5 mph - N/A   Clear
3:56 AM 63.0 °F 61.0 °F 93% 29.97 in 10.0 mi North 3.5 mph - N/A   Clear
4:56 AM 62.1 °F 59.0 °F 90% 29.96 in 10.0 mi NNW 5.8 mph - N/A   Clear
5:56 AM 61.0 °F 57.9 °F 90% 29.94 in 10.0 mi NNE 4.6 mph - N/A   Clear
7:56 AM 63.0 °F 59.0 °F 87% 30.03 in 10.0 mi West 4.6 mph - N/A   Clear
8:56 AM 66.0 °F 57.0 °F 73% 30.04 in 10.0 mi NNW 5.8 mph - N/A   Partly Cloudy
9:56 AM 69.1 °F 53.1 °F 57% 30.04 in 10.0 mi NW 8.1 mph - N/A   Clear
10:56 AM 71.1 °F 52.0 °F 51% 30.04 in 10.0 mi NNW 10.4 mph - N/A   Clear
11:56 AM 72.0 °F 51.1 °F 48% 30.03 in 10.0 mi NW 13.8 mph 21.9 mph N/A   Clear
12:56 PM 73.9 °F 51.1 °F 45% 30.03 in 10.0 mi North 10.4 mph - N/A   Clear
1:56 PM 73.9 °F 48.9 °F 41% 30.02 in 10.0 mi North 11.5 mph - N/A   Clear
2:56 PM 75.0 °F 50.0 °F 41% 30.02 in 10.0 mi NNW 9.2 mph 18.4 mph N/A   Clear
3:56 PM 73.9 °F 48.9 °F 41% 30.01 in 10.0 mi NNW 10.4 mph - N/A   Partly Cloudy
4:56 PM 73.9 °F 48.9 °F 41% 30.01 in 10.0 mi NW 8.1 mph - N/A   Clear
5:56 PM 72.0 °F 51.1 °F 48% 30.01 in 10.0 mi WNW 6.9 mph - N/A   Clear
6:56 PM 72.0 °F 50.0 °F 46% 30.00 in 10.0 mi NNW 4.6 mph - N/A   Scattered Clouds
7:56 PM 66.9 °F 55.0 °F 66% 29.99 in 10.0 mi Calm Calm - N/A   Mostly Cloudy
8:56 PM 64.0 °F 55.0 °F 73% 30.01 in 10.0 mi Calm Calm - N/A   Mostly Cloudy
9:56 PM 62.1 °F 55.9 °F 80% 30.02 in 10.0 mi Calm Calm - N/A   Overcast
10:56 PM 62.1 °F 57.0 °F 84% 30.02 in 10.0 mi Calm Calm - N/A   Overcast
11:56 PM 62.1 °F 59.0 °F 90% 30.03 in 10.0 mi Calm Calm - N/A   Overcast